Location: Ert’atsminda
(41.8648°N, 44.3235°E)
Time: 10:10:52
(UTC+00:00)

Daily predictions for brighter satellites

Satellite Brightness Start Highest point End
(mag) Time Altitude Azimuth Time Altitude Azimuth Time Altitude Azimuth
SPOT 5 3.9 17:03:04 10° S 17:07:42 50° W 17:12:37 10° NNW
CSL-04 Rocket 4.2 17:03:34 10° S 17:08:49 62° WSW 17:14:03 10° NNW
Cosmos 44 Rocket 4.3 17:06:55 10° NNW 17:11:42 37° NE 17:16:21 10° ESE
Milstar 3 Cent rocket 3.5 17:09:37 10° SSW 17:12:29 16° S 17:15:20 10° SE
EXPRESS MD2 4.3 17:07:44 10° WNW 17:12:44 43° NNE 17:15:46 10° E
Cosmos 2142 Rocket 4.5 17:09:13 10° S 17:15:20 78° E 17:21:29 10° N
Meteor 1-10 Rocket 4.5 17:10:26 10° S 17:16:21 84° W 17:22:12 10° N
IRAS Rocket 4.3 17:11:42 10° SSE 17:17:14 80° ENE 17:22:50 10° NNW
Cosmos 2082 3.7 17:12:02 10° SSW 17:17:38 85° ESE 17:23:16 10° NNE
Meteor 1-11 Rocket 3.7 17:12:29 10° N 17:18:02 84° E 17:23:37 10° S
NOSS 3-2 (A) 3.6 17:13:58 10° S 17:18:17 33° ESE 17:23:10 10° NE
MetOp-B 4.2 17:14:18 10° SSE 17:19:37 76° ENE 17:24:59 10° N
Cosmos 2266 Rocket 4.2 17:14:45 10° N 17:20:54 58° E 17:27:06 10° SSE
CZ-3 Stage 3 3.8 17:15:12 10° W 17:21:33 19° SW 17:24:52 10° S
CZ-4B R/B 4.4 17:18:02 10° S 17:21:45 54° W 17:25:23 10° NNW
Cosmos 2263 Rocket 3.7 17:16:53 10° SW 17:22:06 41° WNW 17:27:20 10° N
CZ-4B DEB 4.4 17:18:24 10° S 17:23:54 78° WSW 17:29:24 10° NNW
SKYMED 3 4.3 17:23:53 10° NNE 17:27:52 74° E 17:31:50 10° S
Cosmos 2221 4.2 17:24:43 10° SW 17:28:35 35° WNW 17:32:30 10° N
CZ-4B R/B 3.2 17:24:50 10° SSE 17:30:19 86° ENE 17:35:43 10° NNW
Spot 2 Rocket 3.8 17:25:46 10° SSE 17:30:40 54° ENE 17:35:37 10° N
IRS-1A Rocket 4.4 17:25:21 10° SSE 17:31:14 74° ENE 17:37:04 10° N
Meteor 2-20 4.4 17:26:24 10° S 17:32:25 74° E 17:38:29 10° NNE
Okean-O 3.0 17:30:10 10° SE 17:34:16 47° ENE 17:38:27 10° N
Cosmos 1867 4.0 17:28:58 10° NW 17:34:22 62° WSW 17:39:42 10° SSE
Aureole 2 4.1 17:32:30 10° SSW 17:35:27 76° WNW 17:38:18 10° NNE
CZ-4 R/B 2.7 17:32:45 10° SSW 17:36:11 35° W 17:39:41 10° NNW
Cosmos 773 Rocket 3.9 17:32:42 10° S 17:37:46 68° ESE 17:42:53 10° NNE
ADEOS 3.6 17:34:32 10° SSE 17:39:45 88° WSW 17:44:59 10° NNW
Cosmos 1844 Rocket 2.7 17:36:13 10° S 17:41:39 59° ESE 17:47:07 10° NNE
Cosmos 1842 Rocket 4.0 17:37:36 10° SSE 17:41:48 44° E 17:46:01 10° NNE
Cosmos 1570 Rocket 4.0 17:36:58 10° SSW 17:42:16 85° ESE 17:47:38 10° NNE
CZ-4C R/B 3.2 17:38:00 10° NNW 17:45:10 73° NE 17:52:53 14° SE
Helios 1A Rocket 2.7 17:42:34 10° N 17:45:39 62° WNW 17:48:44 10° SSW
Meteor 2-10 Rocket 4.0 17:42:05 10° N 17:47:48 55° ENE 17:52:35 14° SSE
OAO 3 Rocket 3.8 17:43:58 10° WSW 17:48:06 35° S 17:51:14 16° ESE
Cosmos 1340 Rocket 4.3 17:45:47 10° NNE 17:48:38 20° ENE 17:50:30 15° ESE
USA 245 4.2 17:50:36 17° SE 17:52:52 29° ENE 17:55:48 10° NNE
ERS-1 Rocket 4.1 17:50:35 10° SSW 17:55:15 40° W 17:59:58 10° NNW
Cosmos 1066 Rocket 4.2 17:52:08 10° S 17:57:47 77° E 18:03:34 10° NNE
SL-14 R/B 3.5 17:56:26 17° SSE 17:58:56 44° E 18:02:29 10° NNE
Meteor 2-4 Rocket 4.0 17:53:46 10° SSW 17:59:27 75° W 18:05:20 10° N
Cosmos 1238 Rocket 3.7 17:54:50 10° SSW 17:59:40 67° W 18:04:27 10° N
NOSS 3-2 (C) 4.0 17:57:01 16° SSE 17:59:40 25° ESE 18:04:02 10° ENE
Cosmos 1844 3.7 17:56:32 10° SSW 18:02:17 80° ESE 18:08:06 10° NNE
Cosmos 1151 Rocket 4.1 18:01:12 19° SE 18:03:12 27° E 18:06:52 10° NNE
SL-24 R/B - RUBIN 2 3.6 17:59:22 10° SW 18:03:59 84° WNW 18:08:23 10° NNE
SL-16 R/B 3.9 18:00:38 10° NW 18:05:24 28° WSW 18:10:08 10° SSW
CZ-4B R/B 4.2 18:05:04 19° SE 18:08:16 40° ENE 18:13:03 10° N
In-Cosmos 22 4.4 18:04:56 12° S 18:10:05 59° E 18:15:45 10° NNE
SL-08 R/B 4.1 18:06:00 10° N 18:10:26 50° WNW 18:14:50 10° SW
MOS 1-B 4.5 18:08:32 14° S 18:13:38 77° WSW 18:19:27 10° NNW
Okean O Rocket 1.9 18:10:12 15° S 18:13:45 64° W 18:18:06 10° NNW
OAO 2 Rocket 4.0 18:10:14 10° SW 18:14:56 34° SSE 18:17:32 21° ESE
ATLAS 2AS CENTAUR R/B 3.4 18:08:47 10° NW 18:15:10 46° WSW 18:20:44 14° S
Cosmos 1766 Rocket 4.2 18:12:05 10° NNW 18:16:21 53° W 18:20:11 13° SSW
Cosmos 1943 3.6 18:12:43 10° NNW 18:18:14 60° WSW 18:22:26 17° S
CZ-2C R/B 3.9 18:21:09 17° ENE 18:21:18 17° ENE 18:23:10 10° NNE
Cosmos 1655 Rocket 4.0 18:16:14 10° N 18:22:37 85° E 18:27:25 19° S
Meteor 1-18 Rocket 4.3 18:18:48 10° S 18:24:34 85° W 18:30:29 10° N
Transit 2A Rocket 4.4 18:21:57 10° NNW 18:26:20 81° ENE 18:28:23 30° SE
BlueWalker 3 3.7 18:28:35 10° W 18:31:00 17° SW 18:32:03 16° SSW
Cosmos 2298 Rocket 4.0 18:26:57 10° NNW 18:32:17 90° WSW 18:35:15 27° SSE
Cosmos 2150 Rocket 4.1 18:28:39 10° NNW 18:34:05 81° WSW 18:37:11 26° SSE
NOSS 2-3 (D) 3.6 18:34:06 37° SE 18:34:26 38° ESE 18:37:53 10° NE
CZ-4B R/B 2.7 18:33:13 33° SSE 18:34:51 87° ENE 18:38:47 10° NNW
Cosmos 1461 2.8 18:33:33 10° NNW 18:36:59 51° NE 18:37:55 38° ESE
Iridium 4 Rocket 4.2 18:36:04 27° SE 18:38:22 40° E 18:43:11 10° NNE
Cosmos 2285 Rocket 4.3 18:33:37 10° NNW 18:39:53 57° ENE 18:43:21 27° SE
Meteor 2-11 Rocket 4.4 18:35:17 10° N 18:41:23 88° W 18:45:12 24° S
Cosmos 1500 Rocket 3.7 18:37:11 10° N 18:41:26 55° E 18:42:52 36° SE
USA 186 3.2 18:41:03 18° WSW 18:41:38 19° W 18:43:25 10° NW
Sich 1 3.2 18:38:18 10° NNW 18:42:33 68° W 18:44:41 28° S
Terra 4.4 18:43:17 10° WSW 18:45:37 14° W 18:47:59 10° WNW
GP-B 3.3 18:41:29 10° NNE 18:45:46 52° E 18:47:04 38° SE
Helios 1A 4.5 18:43:32 10° NE 18:46:03 19° E 18:46:03 19° E
Cosmos 1244 Rocket 4.4 18:44:47 10° N 18:50:59 83° E 18:54:24 29° S
Cosmos 1538 Rocket 4.3 18:51:12 35° SSE 18:52:46 45° ESE 18:57:42 10° NNE
Cosmos 1943 Rocket 3.9 18:53:39 16° E 18:53:39 16° E 18:56:46 10° ENE
SPOT 3 Rocket 4.1 18:53:27 23° SSW 18:56:25 52° W 19:01:26 10° NNW
Cosmos 1758 3.9 18:55:36 10° NNW 18:59:07 45° W 19:00:22 32° SW
SL-08 R/B 4.4 18:54:53 10° N 19:01:05 84° E 19:04:04 33° S
NOSS 2-3 (E) 2.9 19:00:41 42° SSW 19:01:50 82° SE 19:05:32 10° NE
IRS-1C Rocket 4.5 19:03:32 29° S 19:06:09 58° W 19:11:20 10° NNW
Ariane Rocket 3.4 19:04:04 29° SSW 19:06:31 55° W 19:11:30 10° NNW
USA 215 3.7 19:02:50 19° ESE 19:07:33 58° NE 19:13:56 10° NW
Cosmos 724 4.2 19:01:45 10° NNW 19:07:35 87° ENE 19:09:56 38° SSE
Cosmos 1328 Rocket 4.2 19:10:56 38° ESE 19:11:13 38° E 19:15:16 10° NNE
HBTSS-SV1 4.3 19:10:11 10° WSW 19:14:30 61° S 19:14:47 59° SSE
Cosmos 1805 Rocket 4.1 19:14:16 10° NNW 19:18:28 51° W 19:19:47 36° SW
Cosmos 1603 4.5 19:14:07 10° NW 19:19:29 43° WSW 19:21:50 29° SSW
S3M 4.0 19:19:24 39° SSE 19:21:36 64° E 19:27:39 10° NNE
Lacrosse 5 rocket 2.8 19:24:38 20° ENE 19:24:38 20° ENE 19:25:54 10° NE
Cosmos 1408 Rocket 4.3 19:18:26 10° NNW 19:22:39 45° W 19:24:04 33° SW
Cosmos 1666 Rocket 4.0 19:18:53 10° N 19:23:04 45° ENE 19:23:31 44° E
Cosmos 1340 Rocket 4.4 19:21:00 10° NW 19:24:05 24° W 19:25:09 21° WSW
Meteor 1-22 Rocket 4.0 19:24:27 10° N 19:29:47 88° E 19:31:15 49° S
Cosmos 1743 Rocket 3.6 19:25:44 10° NNW 19:30:01 67° W 19:30:49 54° SSW
Cosmos 1703 3.8 19:31:55 37° W 19:31:58 37° W 19:34:57 10° N
CZ-4C R/B 4.3 19:26:52 10° NW 19:33:19 30° WSW 19:37:47 19° SSW
ATLAS 5 CENTAUR R/B 3.7 19:29:35 11° SW 19:33:54 74° NW 19:50:41 10° NE
Meteor 1-15 Rocket 4.3 19:28:51 10° N 19:34:39 67° ENE 19:36:17 46° SE
Cosmos 883 Rocket 4.4 19:34:45 43° SSE 19:36:44 69° E 19:42:50 10° NNE
Cosmos 1709 Rocket 4.1 19:31:43 10° N 19:38:04 71° E 19:40:12 43° SSE
Cosmos 1833 Rocket 2.8 19:34:02 10° NNW 19:39:40 68° ENE 19:41:17 46° SE
ARGOS Delta rocket 4.2 19:37:28 10° NNE 19:42:43 53° E 19:43:27 49° SE
Cosmos 2082 Rocket 4.4 19:40:52 10° N 19:44:32 17° NE 19:48:12 10° E
Meteor 1-23 Rocket 4.2 19:43:30 51° SSE 19:44:44 66° E 19:50:16 10° NNE
Cosmos 2344 3.4 19:38:57 21° SSW 19:44:46 77° ESE 19:51:56 10° NE
Cosmos 2278 Rocket 3.0 19:46:20 34° ESE 19:46:26 34° ESE 19:51:28 10° NE
NOSS 3-2 (C) 4.1 19:45:13 10° WSW 19:49:59 44° NW 19:55:38 10° NNE
BREEZE-M R/B 3.8 19:48:41 24° SW 19:51:44 85° SSE 20:01:06 10° ENE
Cosmos 1953 2.8 19:52:18 10° NNW 19:55:23 46° WNW 19:55:23 46° WNW
NOSS 2-3 (C) 4.1 19:55:42 36° WNW 19:56:15 40° NW 19:59:35 10° NNE
Cosmos 1633 Rocket 2.9 19:56:41 10° N 20:01:04 81° W 20:01:12 80° SW
USA 238 DEB 3.5 20:01:33 52° SSE 20:02:33 58° ESE 20:08:57 10° NE
Cosmos 1680 Rocket 3.5 20:02:21 59° SE 20:02:42 60° ESE 20:07:49 10° NNE
USA 238 3.5 20:01:48 51° SSE 20:02:46 57° ESE 20:09:09 10° NE
Cosmos 1745 Rocket 4.4 19:58:09 10° NNW 20:04:15 56° W 20:06:25 38° SSW
Cosmos 494 Rocket 4.2 20:04:53 52° ESE 20:05:04 52° ESE 20:10:10 10° NNE
Meteor 1-12 Rocket 4.5 20:01:14 10° N 20:06:51 58° ENE 20:08:04 48° ESE
CZ-2C R/B 4.1 20:02:38 10° NNE 20:07:28 31° E 20:07:42 31° E
Cosmos 2056 Rocket 4.0 20:07:20 10° N 20:12:16 47° ENE 20:13:13 42° E
ACS3 Solar Sail 3.3 20:11:57 10° NE 20:15:46 18° E 20:16:29 18° E
Cosmos 1400 Rocket 3.9 20:13:49 10° N 20:16:37 34° NE 20:16:37 34° NE
Helios 1A 4.2 20:17:38 10° N 20:21:07 31° WNW 20:21:45 29° W
ARIANE 5 R/B 2.5 20:21:50 80° E 20:21:53 80° ENE 20:26:21 10° N
Helios 1B rocket 3.1 20:23:48 42° NW 20:23:48 42° NW 20:26:19 10° NNW
Okean 2 4.0 20:32:03 47° NW 20:32:03 47° NW 20:35:23 10° N
Cosmos 1420 Rocket 4.1 20:27:33 10° NNW 20:32:41 59° WSW 20:33:01 58° SW
Cosmos 1470 Rocket 3.9 20:28:25 10° NNW 20:32:42 55° W 20:32:42 55° W
ALOS 2 2.5 20:34:31 84° NNW 20:34:31 84° NNW 20:38:48 10° NNW
Cosmos 1943 Rocket 2.3 20:35:06 50° SW 20:36:32 72° WNW 20:42:11 10° NNE
Cosmos 2074 Rocket 4.1 20:33:09 10° N 20:39:21 67° E 20:40:47 51° SE
Cosmos 1933 Rocket 3.6 20:35:53 10° N 20:39:55 70° NE 20:39:55 70° NE
Cosmos 1295 Rocket 4.3 20:36:52 10° N 20:42:59 83° E 20:44:14 59° SSE
Cosmos 2112 Rocket 4.2 20:48:39 54° WSW 20:49:30 63° WNW 20:54:39 10° NNE
USA 215 3.6 20:50:09 43° SW 20:50:40 44° SW 20:56:51 10° WNW
CZ-2C R/B 3.0 20:50:17 46° ESE 20:51:13 52° ENE 20:56:15 10° N
BREEZE-M DEB (TANK) 4.1 20:38:02 10° WNW 20:54:48 50° SW 20:55:49 46° SSW
Timation 2 Rocket 3.9 20:57:32 59° S 20:58:50 83° ESE 21:05:21 10° NNE
Lacrosse 5 rocket 3.3 20:57:41 17° WNW 20:59:10 22° NNW 21:01:58 10° NNE
USA 81 4.2 20:54:37 10° NNW 20:59:46 57° W 21:00:17 55° WSW
Cosmos 1371 Rocket 4.0 20:58:02 10° NNW 21:03:14 64° WSW 21:03:24 64° WSW
GEOS 3 Rocket 3.9 21:04:15 50° WSW 21:04:15 50° WSW 21:09:26 10° NW
PSLV R/B 4.4 21:02:25 10° N 21:06:48 43° WNW 21:07:20 42° W
Nadezhda 1 Rocket 3.9 21:07:19 59° SSE 21:08:31 79° E 21:14:41 10° N
NOSS 2-1 (D) 4.3 21:10:27 36° NNW 21:10:27 36° NNW 21:12:54 10° NNE
Cosmos 1452 Rocket 4.4 21:05:16 10° N 21:10:14 41° ENE 21:11:51 33° ESE
Cosmos 1110 Rocket 4.1 21:05:21 10° NNW 21:10:31 64° ENE 21:11:17 56° ESE
Cosmos 1869 Rocket 3.8 21:07:55 10° NNW 21:11:45 62° WNW 21:11:45 62° WNW
NOSS 2-1 (C) 4.2 21:13:25 39° NNW 21:13:25 39° NNW 21:15:50 10° NNE
MetOp-A 3.8 21:15:58 58° NW 21:15:58 58° NW 21:19:12 10° NNW
USA 59 Rocket 1.2 21:16:04 28° NW 21:16:04 28° NW 21:18:32 10° NNE
Cosmos 2154 Rocket 3.9 21:09:38 10° NNW 21:15:50 73° W 21:17:05 57° SSW
NOSS 3-1 (C) 4.3 21:16:58 24° E 21:16:58 24° E 21:20:17 10° ENE
Cosmos 2184 Rocket 4.1 21:10:40 10° NNW 21:16:52 66° W 21:18:09 53° SW
Cosmos 1707 Rocket 3.8 21:26:13 59° ENE 21:26:13 59° ENE 21:30:18 10° NNE
IRIDIUM 114 4.3 21:21:48 10° N 21:27:02 73° E 21:27:41 64° SE
Cosmos 2082 Rocket 2.0 21:23:40 10° NNW 21:29:18 81° WSW 21:30:04 66° S
Cosmos 2278 Rocket 3.3 21:28:07 26° W 21:30:24 36° WNW 21:35:37 10° N
Cosmos 1733 Rocket 3.0 21:28:07 10° N 21:32:13 73° NE 21:32:13 73° NE
SL-12 R/B(2) 4.2 21:30:29 45° S 21:33:04 66° ESE 21:42:13 10° NE
Cosmos 1656 Rocket 3.4 21:32:38 68° S 21:33:18 80° ESE 21:38:50 10° NNE
ATLAS 5 CENTAUR R/B 3.4 21:37:47 13° ENE 21:37:47 13° ENE 21:38:16 10° ENE
Cosmos 1315 Rocket 4.0 21:32:33 10° N 21:35:58 33° ENE 21:35:58 33° ENE
Cosmos 1862 Rocket 3.5 21:36:24 79° NNE 21:36:24 79° NNE 21:40:27 10° N
IRIDIUM 103 4.2 21:30:57 10° N 21:36:12 88° E 21:36:49 70° S
SL-8 Rocket 4.2 21:36:31 10° N 21:42:38 63° E 21:44:38 42° SE
Cosmos 1331 Rocket 3.8 21:38:07 10° NNW 21:43:14 70° WSW 21:43:31 68° SW
Okean 1-7 3.0 21:43:45 70° NW 21:43:45 70° NW 21:47:40 10° N
CZ-2C R/B 4.2 21:42:15 10° N 21:47:12 35° WNW 21:48:40 30° W
COSMOS 2406 3.4 21:41:45 10° NNW 21:47:27 67° ENE 21:49:28 40° SE
IRIDIUM 106 4.3 21:49:19 10° N 21:54:28 63° W 21:55:05 58° SW
ACS3 Solar Sail 1.8 21:52:45 10° N 21:58:24 64° WNW 21:59:51 48° SW
SL-4 R/B 4.1 22:00:49 12° E 22:00:49 12° E 22:01:12 10° ENE
Cosmos 2297 4.1 22:02:21 45° SSE 22:03:34 53° ESE 22:09:08 10° NNE
Cosmos 1908 Rocket 4.3 21:59:45 10° N 22:04:03 47° ENE 22:04:56 41° ESE
ARIANE 6 FM1 Upper Stage 3.1 22:07:09 50° E 22:07:09 50° E 22:10:47 10° NE
Lacrosse 4 Rocket 4.3 22:07:47 10° N 22:10:22 16° NE 22:12:54 10° E
Meteor 2-5 Rocket 3.7 22:09:07 53° SSW 22:10:30 79° W 22:16:22 10° N
COSMOS 2455 3.7 22:11:00 31° SE 22:12:36 36° ESE 22:18:02 10° NE
ADEOS Rocket 3.9 22:06:54 10° NNE 22:12:48 39° E 22:15:17 27° SE
Cosmos 2369 Rocket 2.1 22:13:52 54° S 22:15:09 77° ESE 22:20:45 10° NNE
Cosmos 972 Rocket 4.1 22:09:58 10° NNW 22:15:39 66° WSW 22:16:34 55° SSW
Cosmos 2181 Rocket 3.9 22:18:45 44° S 22:20:54 86° E 22:27:18 10° N
Cosmos 1302 Rocket 3.9 22:15:45 10° NNW 22:21:02 77° WSW 22:22:13 54° S
Meteor 1-24 Rocket 4.1 22:19:30 43° SW 22:21:09 57° WNW 22:27:07 10° N
Cosmos 2228 Rocket 3.5 22:21:12 47° W 22:21:26 47° WNW 22:25:40 10° N
IDEFIX/ARIANE 42P 3.1 22:19:45 10° NNE 22:24:49 48° E 22:26:31 35° SSE
Nadezhda 3 Rocket 4.4 22:28:03 31° SSE 22:30:55 56° E 22:37:00 10° NNE
CZ-2C R/B 4.2 22:31:43 19° W 22:31:44 19° W 22:35:21 10° NW
Cosmos 2366 rocket 4.2 22:28:09 10° NNW 22:34:22 57° W 22:36:24 40° SSW
In-Cosmos 22 Rocket 4.5 22:33:07 36° SSE 22:35:10 58° E 22:40:35 10° NNE
FENGYUN 3A 4.3 22:31:52 10° NNE 22:37:03 47° E 22:39:17 30° SSE
Cosmos 2218 Rocket 4.3 22:37:01 10° NNW 22:43:10 53° W 22:45:18 37° SW
Spot 1 4.4 22:40:24 10° N 22:45:24 73° WNW 22:46:46 47° SW
Cosmos 1869 3.8 22:45:51 10° NNW 22:48:31 37° WNW 22:48:31 37° WNW
CZ-2D R/B 4.3 22:46:08 10° NE 22:49:57 19° E 22:53:42 10° SE
Cosmos 1821 Rocket 4.0 22:44:24 10° NNW 22:50:26 64° W 22:52:50 37° SSW
USA 308 3.0 22:52:04 45° SE 22:52:04 45° SE 22:56:04 10° ENE
NPP 3.8 22:47:27 10° NNE 22:52:50 66° ESE 22:55:16 33° S
Cosmos 1346 Rocket 4.0 22:52:10 26° SE 22:53:13 31° E 22:56:27 10° NNE
Cosmos 2263 4.2 22:51:25 39° SW 22:53:33 71° WNW 22:59:14 10° NNE
Cosmos 220 Rocket 3.9 22:50:28 10° NNW 22:54:41 82° ENE 22:56:10 39° SSE
NOSS 3-1 (A) 2.9 22:53:30 44° S 22:54:48 63° ESE 23:00:00 10° NE
H-2A R/B 4.2 22:52:52 10° NE 22:56:33 19° E 23:00:10 10° SE
Cosmos 1992 Rocket 4.0 22:55:48 10° NNW 23:00:54 60° WSW 23:02:44 37° SSW
Cosmos 1300 Rocket 3.5 22:57:43 10° NNW 23:02:01 62° W 23:03:00 47° SSW
USA 276 3.7 23:02:29 23° NW 23:03:21 27° NNW 23:06:00 10° NE
USA 290 2.4 23:00:20 10° NNW 23:03:00 55° WNW 23:03:00 55° WNW
SL-8 R/B 4.4 23:00:12 18° W 23:03:29 50° NNW 23:08:07 10° ENE
USA 234 4.4 22:58:57 10° ENE 23:04:32 29° SE 23:07:54 19° S
Cosmos 1703 Rocket 4.5 23:03:48 30° W 23:04:35 33° WNW 23:08:33 10° N
NOSS 3-1 (C) 3.8 23:04:15 24° W 23:06:31 39° NW 23:11:40 10° NNE
MSX 3.9 23:07:37 10° N 23:13:19 64° WNW 23:16:10 30° SW
ATLAS 5 CENTAUR R/B 2.9 23:16:46 13° WNW 23:17:40 15° NW 23:19:32 10° N
Cosmos 1140 Rocket 3.4 23:16:16 33° SSW 23:18:37 89° WNW 23:23:45 10° NNE
Iridium 82 3.9 23:19:59 64° WNW 23:19:59 64° WNW 23:22:38 10° N
Cosmos 1833 4.1 23:20:07 10° NNW 23:25:45 72° WSW 23:31:04 12° SSE
Cosmos 1818 3.8 23:23:32 28° SW 23:26:22 60° NW 23:31:46 10° NNE
Cosmos 1269 Rocket 4.0 23:23:40 29° SSW 23:26:27 89° WNW 23:31:45 10° NNE
MOS 1-B Rocket 4.0 23:22:09 10° N 23:28:24 67° WNW 23:31:47 25° SSW
USA 32 4.0 23:24:28 10° N 23:29:39 65° W 23:32:41 25° SSW
Cosmos 1763 Rocket 4.4 23:27:30 10° N 23:32:23 46° ENE 23:37:12 10° SE
SL-4 R/B 2.5 23:34:12 22° W 23:35:40 36° NNW 23:38:35 10° NE
Cosmos 1674 Rocket 4.3 23:33:46 15° SSE 23:37:13 48° E 23:41:30 10° NNE
Cosmos 921 Rocket 2.9 23:38:47 29° SSW 23:40:54 73° WNW 23:45:07 10° NNE
SJ 16-02 1.8 23:41:28 19° S 23:44:18 54° ESE 23:48:27 10° NNE
ALOS 2.7 23:42:08 10° NNE 23:46:38 58° E 23:50:26 14° S
Lacrosse 4 Rocket 1.3 23:44:22 10° NW 23:48:31 61° WSW 23:52:36 10° SSE
Cosmos 1656 3.9 23:49:24 16° S 23:53:40 63° ESE 23:59:06 10° NNE
BREEZE-M DEB (TANK) 1.9 23:52:30 10° WNW 23:56:21 40° SW 23:58:38 10° SSE
